Probability
13 13 13 12 12 13 13 13 15 16 15 15 17 20 20 19 20 18 12 10 10 9 7 7 7 9 12 11 10 12 14 13 12 9 7 5 5 5 7 7 6 4 2
13 14 13 12 12 12 12 12 13 14 15 16 18 21 21 20 20 18 15 14 14 14 13 12 11 12 15 15 13 13 14 13 11 9 6 5 5 7 8 8 6 4 3
15 15 14 13 12 13 12 11 11 12 14 16 18 21 21 20 19 18 16 17 19 19 19 17 14 15 17 17 15 14 13 12 10 8 6 6 6 9 10 9 7 5 4
18 17 15 15 15 15 14 12 13 13 13 15 18 19 19 18 17 16 16 17 19 20 19 17 14 12 13 13 12 13 13 12 10 9 8 9 10 11 11 10 8 7 6
22 20 17 18 19 18 17 16 16 16 16 17 19 19 18 16 14 13 14 15 16 18 17 14 10 8 8 8 7 9 12 13 12 13 13 13 14 14 12 10 9 9 8
26 23 22 21 22 21 20 20 20 19 18 19 19 18 16 12 9 9 10 12 14 14 14 11 7 5 5 5 4 5 7 10 11 13 15 14 14 15 13 10 9 10 9
25 23 23 24 23 22 22 23 23 21 19 18 17 16 13 9 5 4 6 10 11 11 11 9 6 4 5 6 5 3 4 5 7 10 12 13 13 15 13 10 9 10 10
21 20 21 22 21 19 21 24 27 25 20 15 13 12 10 6 3 1 2 5 7 8 8 7 5 4 4 6 7 7 7 8 7 7 9 11 12 13 12 11 11 11 10
21 21 21 21 18 17 20 23 26 26 21 14 11 10 8 5 2 0 1 3 5 6 5 5 5 5 3 4 7 10 12 12 10 8 8 8 9 10 10 11 12 12 11
25 25 24 23 21 20 20 20 22 23 20 15 12 10 8 5 1 0 1 4 6 5 4 4 4 4 3 2 6 11 13 12 11 10 9 8 8 9 9 12 14 14 13
28 28 27 24 22 21 19 18 19 20 19 17 15 11 8 5 2 0 1 3 5 5 4 3 3 3 2 1 3 8 9 9 10 11 11 11 12 14 14 15 16 16 16
32 31 27 24 20 18 17 17 18 18 17 17 15 12 9 6 2 0 0 1 2 4 4 4 3 2 1 0 1 2 3 5 8 11 12 14 17 18 18 17 17 16 15
35 33 28 24 21 18 18 17 17 17 16 14 13 11 10 8 4 2 1 1 1 3 4 3 2 1 0 0 0 0 1 4 8 10 11 13 15 16 16 16 15 14 13
34 32 28 25 23 21 19 17 16 16 15 14 13 11 11 10 7 4 3 4 4 4 4 4 2 1 1 1 1 2 3 5 7 9 10 11 12 12 13 13 13 12 11
28 28 26 25 25 22 18 15 13 13 13 12 11 11 11 10 6 3 4 5 5 4 4 4 4 3 2 3 4 4 4 4 5 7 8 9 9 10 10 11 12 12 11
23 22 22 23 23 21 18 14 10 7 6 6 5 5 6 5 3 1 1 2 2 2 2 3 3 3 3 3 4 4 3 3 3 5 6 8 8 9 9 9 10 11 11
21 21 20 20 19 17 15 14 10 6 4 2 1 1 1 1 1 0 0 0 0 0 0 1 1 2 1 2 3 3 3 3 3 4 6 7 7 7 6 6 7 8 9
21 21 20 19 16 13 12 12 11 9 7 5 2 1 0 0 0 0 0 0 0 0 0 0 0 0 0 1 2 2 2 1 1 3 4 5 5 4 4 4 4 5 6
20 20 19 17 14 12 11 11 10 8 7 6 5 3 1 0 0 0 0 0 0 0 0 0 0 0 0 0 1 1 1 0 0 1 2 3 3 3 3 3 3 3 4
18 17 15 14 13 12 12 11 9 6 4 5 4 3 2 1 0 0 0 0 0 0 0 0 0 0 0 0 0 0 0 0 0 0 0 1 1 2 3 3 3 2 2
16 14 11 10 10 10 10 10 8 5 3 2 2 1 1 1 1 1 0 0 0 0 0 0 0 0 0 0 0 0 0 0 0 0 0 0 0 1 2 3 2 2 2
13 11 9 8 8 7 7 7 6 4 2 1 0 0 0 1 1 1 1 1 0 0 0 0 0 0 0 0 0 0 0 0 0 0 0 1 1 2 3 3 4 4 4
9 8 7 7 7 5 5 5 4 3 1 0 0 0 0 0 0 1 2 2 1 0 0 0 0 0 0 0 0 0 0 0 0 0 1 2 3 4 5 5 6 6 6
5 5 5 6 6 4 3 3 2 1 0 0 0 0 0 0 0 0 1 1 0 0 0 0 0 0 0 0 0 0 0 0 0 0 1 2 3 4 5 6 6 5 5
3 3 4 6 6 4 3 3 2 1 1 1 0 0 0 0 0 0 0 0 0 0 0 0 0 0 0 0 0 0 0 0 0 0 0 1 1 1 3 3 3 3 2
3 3 4 6 6 5 4 3 3 2 2 2 1 0 0 0 0 0 0 0 0 0 0 0 0 0 0 0 0 0 0 0 0 0 0 0 0 0 1 1 1 1 0
Wind_Speed
7 7 6 5 4 4 3 3 2 1 1 2 1 1 1 1 1 2 2 2 1 1 1 1 1 1 1 1 1 1 1 1 1 1 1 2 2 1 2 2 3 3 4
7 7 6 5 5 4 3 2 2 1 2 2 2 1 1 2 1 2 2 2 1 1 1 1 1 1 1 1 1 1 1 1 2 2 1 2 2 2 2 1 2 2 3
8 8 7 6 5 5 4 3 2 2 2 2 2 2 2 2 2 1 1 1 1 1 1 1 1 1 1 1 1 1 2 2 2 2 2 1 1 2 2 2 2 1 2
9 9 8 7 6 5 4 4 3 3 3 3 3 2 2 2 2 2 2 2 1 1 1 0 0 1 1 2 2 1 1 2 2 2 2 2 2 2 2 2 2 2 1
9 8 8 7 6 5 5 4 4 3 3 4 3 3 2 2 1 1 2 2 2 1 1 1 1 2 3 1 1 1 2 2 2 2 2 2 2 2 2 2 2 2 2
9 8 7 7 6 6 5 5 4 3 3 3 3 2 2 2 4 3 1 2 1 1 1 1 2 2 2 2 1 2 1 2 2 2 2 2 2 2 2 2 1 2 1
8 7 7 7 7 6 5 5 4 4 4 3 3 3 3 4 3 2 2 1 1 1 0 1 1 1 2 2 3 3 2 1 2 3 2 2 2 2 3 3 2 2 1
8 8 7 7 7 6 5 5 4 4 4 3 3 3 3 4 3 1 2 2 1 1 0 0 1 1 1 1 2 2 2 2 2 3 2 2 2 2 3 3 2 3 2
8 8 8 8 7 7 6 5 5 4 4 4 3 3 3 3 2 2 4 3 2 2 1 0 1 1 2 3 2 2 2 2 2 1 0 1 0 1 2 2 3 3 3
8 8 7 7 7 7 6 5 5 4 4 4 4 3 3 3 3 2 5 3 2 2 2 2 2 1 1 3 2 2 2 1 1 2 2 3 4 4 4 4 4 4 3
7 7 7 7 7 7 6 5 5 5 4 4 4 3 3 3 4 3 3 3 2 2 2 1 2 2 0 3 3 2 1 2 2 2 3 3 3 3 4 3 3 4 4
8 7 7 7 6 6 6 5 5 5 5 5 4 4 4 4 3 4 3 3 4 2 2 1 2 2 1 3 3 1 3 5 3 2 2 2 2 2 2 2 2 2 3
8 7 7 7 6 6 6 6 6 5 5 4 4 4 4 3 4 6 6 5 5 4 1 2 1 3 4 4 4 4 5 4 3 3 2 2 2 1 2 2 3 3 3
7 7 6 6 6 6 5 5 4 4 4 4 4 4 3 3 3 4 4 5 6 6 4 4 6 7 6 3 4 5 4 2 3 3 2 2 2 2 2 2 2 3 3
7 6 6 6 5 5 4 2 3 2 1 2 2 3 3 3 1 1 2 2 2 1 2 4 4 4 4 3 3 2 3 3 3 3 2 2 2 2 2 2 2 3 3
7 6 5 5 5 4 4 3 4 2 4 2 2 2 0 2 3 1 1 1 1 1 4 4 4 3 3 3 3 3 3 3 3 3 3 3 3 3 3 3 3 3 4
6 5 4 4 4 4 4 4 4 3 3 2 1 0 0 2 2 2 2 2 3 4 5 4 4 3 3 3 3 3 2 2 2 3 3 3 3 3 3 3 3 4 4
6 5 4 4 4 4 4 4 4 4 4 3 4 4 4 4 4 3 3 3 4 5 5 4 3 3 3 3 3 2 2 2 3 3 3 3 3 3 3 3 3 4 4
5 4 4 4 4 4 4 4 4 4 3 3 4 5 6 5 6 5 6 5 4 4 4 3 3 3 3 3 2 2 2 2 3 3 3 4 4 3 3 4 4 4 5
4 4 4 4 4 4 4 4 4 4 4 3 3 3 5 5 5 5 6 5 4 4 3 3 3 3 3 3 3 3 3 3 3 4 3 3 3 3 4 4 4 4 4
3 5 6 5 5 4 4 4 4 4 4 3 3 2 3 5 4 4 4 4 4 4 3 3 3 3 3 3 3 4 4 4 4 4 3 3 3 3 4 4 4 4 4
3 4 5 5 4 4 4 4 4 4 4 4 3 4 5 5 4 3 3 3 4 4 3 3 3 3 3 3 4 4 5 4 4 3 3 4 4 4 4 4 4 4 4
3 4 4 4 4 4 5 5 5 4 4 4 4 3 4 4 3 3 3 3 3 3 3 3 4 3 3 3 4 4 5 4 3 4 4 4 4 4 4 4 5 5 5
3 4 4 4 4 4 4 4 4 4 4 4 4 3 3 3 4 4 4 4 3 3 4 3 4 4 4 4 4 4 3 3 3 3 5 5 4 4 4 4 5 6 5
3 3 4 4 4 4 4 4 3 4 4 3 3 3 3 3 3 4 4 3 3 4 4 4 3 4 4 5 4 3 1 1 2 3 4 4 5 5 5 5 4 4 4
3 3 4 3 3 3 3 3 3 3 3 3 3 3 4 4 4 4 4 3 3 3 3 3 4 4 4 3 3 1 1 1 2 3 4 4 4 4 4 4 5 5 5
Wind_Direction
178 176 173 171 175 182 190 187 183 189 190 189 182 177 165 176 180 180 187 163 170 157 174 162 195 243 208 214 213 211 223 211 174 153 123 115 127 136 135 141 139 136 115
167 166 164 163 164 171 168 167 171 180 189 175 168 162 156 144 156 180 183 160 170 160 157 163 182 171 165 235 226 203 171 189 197 170 157 150 151 165 143 162 139 125 110
160 165 163 165 163 166 164 163 163 168 177 168 156 148 136 126 126 125 122 123 116 105 107 133 157 167 189 182 211 203 187 179 181 182 171 161 167 155 152 157 135 138 129
166 168 166 169 171 164 160 159 160 162 162 164 141 131 132 132 131 128 122 115 107 93 73 70 105 202 203 201 200 205 207 192 187 192 174 168 167 161 187 173 161 159 162
169 171 171 167 159 156 153 152 151 147 143 141 136 137 142 148 117 127 156 148 135 122 113 112 81 45 31 7 296 215 204 212 203 194 183 176 173 179 202 209 183 164 149
170 167 159 157 154 152 152 152 150 147 137 134 140 141 141 87 55 27 327 143 154 158 158 164 158 144 117 116 53 33 355 248 244 231 217 208 208 208 215 229 208 202 190
161 159 159 157 154 154 156 152 154 152 143 137 132 137 123 95 77 55 334 203 138 114 185 254 254 124 183 175 158 166 164 239 265 264 256 259 224 222 227 220 221 235 247
161 160 162 161 159 158 162 161 160 151 144 139 138 142 141 119 116 150 276 203 152 147 151 322 311 294 323 276 201 188 198 207 232 232 251 263 258 258 245 235 219 212 211
167 167 167 165 162 165 166 166 162 152 148 154 152 155 155 134 135 206 260 191 168 170 182 51 309 294 5 303 226 199 205 194 150 133 210 224 243 250 269 248 223 226 222
171 169 167 166 165 167 164 166 164 167 166 168 155 167 171 159 156 214 263 219 173 184 169 159 97 343 343 313 239 213 212 212 189 167 177 199 206 196 215 247 255 251 253
165 165 168 169 169 168 168 170 172 179 172 174 167 175 182 174 164 188 262 258 214 213 204 195 117 110 185 301 281 263 257 263 218 209 202 200 199 201 212 224 261 271 271
162 163 165 169 172 165 170 175 179 181 180 182 183 194 185 178 177 176 210 257 295 245 241 234 113 146 217 261 259 277 271 260 235 221 224 228 222 210 207 217 237 266 285
159 161 163 167 170 169 176 179 183 189 198 193 194 200 196 180 166 178 196 216 244 247 261 56 163 216 225 215 208 230 238 237 239 235 232 234 237 234 232 220 210 220 232
162 164 167 171 173 172 184 190 194 194 200 203 206 207 201 196 198 186 192 195 203 216 223 196 205 222 232 230 206 213 226 246 257 253 252 251 245 217 224 237 239 226 228
169 172 175 176 171 172 180 191 208 185 208 235 223 211 212 212 122 34 277 241 254 255 241 231 224 212 213 215 217 217 224 222 236 249 251 253 251 246 244 236 244 249 249
175 179 181 178 170 176 174 163 67 63 78 57 5 321 33 90 119 150 247 269 269 230 241 233 230 228 227 227 231 226 224 229 241 248 247 248 249 246 244 242 245 252 258
184 182 184 181 173 177 180 176 163 134 118 125 158 211 212 156 177 213 220 216 221 215 234 233 229 230 234 232 234 241 244 240 252 252 252 251 253 252 248 246 250 254 256
189 179 186 184 185 185 185 188 188 182 177 177 177 180 185 193 204 206 191 196 204 213 239 240 238 239 245 247 241 237 243 241 240 247 251 255 253 253 255 255 255 267 268
191 188 188 188 190 194 193 195 198 195 192 186 175 166 180 189 194 198 195 226 236 229 235 238 240 244 244 249 253 249 249 253 259 262 254 253 254 255 260 263 263 248 259
187 176 194 200 195 192 195 198 200 200 199 199 203 190 170 189 199 190 202 225 242 244 248 247 241 248 251 251 250 249 246 242 241 247 255 260 262 265 261 262 269 267 261
188 178 188 205 203 199 201 201 204 213 215 212 213 179 188 222 226 221 221 228 242 249 246 245 238 229 237 241 245 246 250 248 249 254 257 258 259 258 263 266 267 268 272
198 195 198 207 205 205 205 205 210 218 221 222 214 170 171 232 243 238 231 228 234 243 247 241 242 236 240 246 248 252 253 251 249 247 248 251 253 257 262 269 273 274 273
211 210 207 207 209 199 209 217 219 219 221 222 221 212 202 227 240 244 246 241 237 240 241 238 241 241 233 235 245 252 256 257 252 253 255 252 254 255 255 256 261 264 266
218 216 214 214 214 214 217 217 218 219 222 226 227 223 219 224 237 244 250 247 240 237 235 234 239 243 243 246 249 252 260 272 262 242 244 253 257 258 257 255 260 264 263
218 221 219 219 217 218 221 219 216 220 224 231 233 233 235 235 242 248 250 248 240 234 235 234 235 240 245 251 263 277 3 25 290 281 243 239 245 252 256 258 260 261 262
218 228 229 222 215 214 218 221 221 220 223 231 239 236 235 237 242 247 248 246 240 232 238 241 241 245 249 247 252 281 113 154 219 256 257 246 241 245 250 251 254 255 253